Windsor, Ontario

8:21 AM EDT on June 29, 2017 (GMT -0400)
Windsor

Weather History for CYQG - March, 2013

Change the Weather History Date:

Tuesday, March 5, 2013

  Actual Average Record
Temperature  
Mean Temperature 28 °F -  
Max Temperature 33 °F 45 °F 66 °F (2004)
Min Temperature 22 °F 29 °F 3 °F (2015)
Degree Days  
Heating Degree Days 38    
Moisture  
Dew Point 22 °F    
Average Humidity 77    
Maximum Humidity 86    
Minimum Humidity 60    
Precipitation  
Precipitation 0.00 in 0.10 in - ()
Sea Level Pressure  
Sea Level Pressure 30.02 in    
Wind  
Wind Speed 9 mph ()    
Max Wind Speed 20 mph    
Max Gust Speed 24 mph    
Visibility 15.0 miles    
Events      
Averages and records for this station are not official NWS values.
T = Trace of Precipitation, MM = Missing Value Source: Averaged Metar Reports

Daily Weather History Graph

Daily Weather History Graph

Search for Another Location

Airport or City:

Trip Planner

Search our weather history database for the weather conditions in past years. The results will help you decide how hot, cold, wet, or windy it might be!

Date:

Astronomy

Mar. 05, 2013 Rise Set
Actual Time 7:00 AM EST 6:26 PM EST
Civil Twilight 6:32 AM EST 6:55 PM EST
Nautical Twilight 5:59 AM EST 7:27 PM EST
Astronomical Twilight 5:27 AM EST 8:00 PM EST
Moon 2:16 AM EST (3/5) 11:59 AM EST (3/5)
Length of Visible Light 12h 22m
Length of Day
11h 26m
Last Quarter, 41% of the Moon is Illuminated
Mar 5
Last Quarter
Mar 11
New
Mar 19
First Quarter
Mar 27
Full
Apr 3
Last Quarter

Hourly Weather History & Observations

Time (EST) Temp. Windchill Dew Point Humidity Pressure Visibility Wind Dir Wind Speed Gust Speed Precip Events Conditions
12:00 AM 24.8 °F 16.9 °F 19.4 °F 80% 30.15 in 15.0 mi NE 6.9 mph - N/A   Scattered Clouds
1:00 AM 24 °F - 19 °F 72% 30.16 in 15 mi NE 5.8 mph - -   Clear
1:00 AM 23.0 °F 15.8 °F 19.4 °F 86% 30.16 in 15.0 mi NE 5.8 mph - N/A   Partly Cloudy
2:00 AM 23.0 °F 13.9 °F 19.4 °F 86% 30.15 in 15.0 mi NE 8.1 mph - N/A   Clear
3:00 AM 23.0 °F 13.9 °F 19.4 °F 86% 30.14 in 15.0 mi ENE 8.1 mph - N/A   Clear
4:00 AM 23.0 °F 14.7 °F 19.4 °F 86% 30.12 in 15.0 mi ENE 6.9 mph - N/A   Clear
5:00 AM 23.0 °F 13.9 °F 19.4 °F 86% 30.11 in 15.0 mi ENE 8.1 mph - N/A   Partly Cloudy
5:40 AM - - - N/A% - 15.0 mi ENE 8.1 mph - N/A   Mostly Cloudy
6:00 AM 23.0 °F 13.9 °F 19.4 °F 86% 30.11 in 15.0 mi East 8.1 mph - N/A   Mostly Cloudy
7:00 AM 24 °F - 20 °F 78% 30.10 in 15 mi East 8.1 mph - -   Mostly Cloudy
7:00 AM 24.8 °F 16.1 °F 19.4 °F 80% 30.10 in 15.0 mi East 8.1 mph - N/A   Mostly Cloudy
8:00 AM 24.8 °F 14.0 °F 21.2 °F 86% 30.09 in 15.0 mi East 11.5 mph - N/A   Mostly Cloudy
9:00 AM 26.6 °F 16.2 °F 21.2 °F 80% 30.09 in 15.0 mi East 11.5 mph - N/A   Partly Cloudy
10:00 AM 28.4 °F 18.0 °F 19.4 °F 69% 30.08 in 15.0 mi ESE 12.7 mph - N/A   Partly Cloudy
11:00 AM 30.2 °F 26.7 °F 23.0 °F 75% 30.06 in 15.0 mi East 3.5 mph - N/A   Mostly Cloudy
12:00 PM 30.2 °F 21.3 °F 23.0 °F 75% 30.05 in 15.0 mi ESE 10.4 mph 18.4 mph N/A   Mostly Cloudy
1:00 PM 31 °F - 22 °F 60% 30.01 in 15 mi East 11.5 mph - -   Mostly Cloudy
1:00 PM 32.0 °F 23.0 °F 23.0 °F 69% 30.01 in 15.0 mi East 11.5 mph - N/A   Mostly Cloudy
2:00 PM 32.0 °F 20.8 °F 23.0 °F 69% 29.98 in 15.0 mi East 17.3 mph - N/A   Scattered Clouds
3:00 PM 32.0 °F 20.1 °F 23.0 °F 69% 29.94 in 15.0 mi East 19.6 mph - N/A   Partly Cloudy
4:00 PM 32.0 °F 20.1 °F 23.0 °F 69% 29.91 in 15.0 mi East 19.6 mph - N/A   Mostly Cloudy
5:00 PM 30.2 °F 19.3 °F 23.0 °F 75% 29.88 in 15.0 mi East 15.0 mph 21.9 mph N/A   Mostly Cloudy
6:00 PM 32.0 °F 21.2 °F 23.0 °F 69% 29.88 in 15.0 mi East 16.1 mph - N/A   Mostly Cloudy
7:00 PM 31 °F - 23 °F 63% 29.88 in 15 mi East 16.1 mph - -   Mostly Cloudy
7:00 PM 30.2 °F 18.9 °F 23.0 °F 75% 29.88 in 15.0 mi East 16.1 mph - N/A   Mostly Cloudy
8:00 PM 30.2 °F 18.9 °F 24.8 °F 80% 29.87 in 15.0 mi NE 16.1 mph - N/A   Overcast
9:00 PM 30.2 °F 18.1 °F 24.8 °F 80% 29.85 in 15.0 mi NE 18.4 mph 24.2 mph N/A   Overcast
10:00 PM 30.2 °F 18.5 °F 23.0 °F 75% 29.85 in 15.0 mi NE 17.3 mph 24.2 mph N/A   Overcast
11:00 PM 28.4 °F 15.8 °F 23.0 °F 80% 29.85 in 15.0 mi NE 18.4 mph - N/A   Overcast